Location: Miles
(41.4492°N, 81.6087°W)
Time: 08:42:19
(UTC+00:00)

Transit 2A - Pass Details

Date: 18 September 2024
Orbit: 590 x 960 km, 66.7° (Epoch: 09 October)

Event Time Altitude Azimuth Distance (km) Brightness Sun altitude
Rises 01:09:03 0° 260° (W) 3,494 10.5 -18.8°
Reaches altitude 10° 01:12:20 10° 279° (W) 2,610 9.9 -19.3°
Maximum altitude 01:16:31 19° 322° (NW) 2,104 9.0 -20.1°
Drops below altitude 10° 01:20:49 10° 5° (N) 2,696 9.0 -20.8°
Sets 01:24:18 0° 23° (NNE) 3,650 9.5 -21.4°
